[[{"header":{"parameterUnit":"m.s-1","parameterCategory":1,"la1":30.2991,"la2":30.254,"lo1":-89.0895,"lo2":-89.0444,"dy":0.0017,"dx":0.0017,"nx":28,"ny":28,"refTime":"2024-03-05T09:00:00:Z","depth":0,"parameterNumber":2,"parameterNumberName":"U-component_of_WINDS"},"data":[0,0,0,0,0,0,0,0,0,0,0,0,0,0,0,0,0,0,0,0,0,0,0,0,0,0,0,0,0,0,0,0,0,0,0,0,0,0,0,0,0,0,0,0,0,0,0,0,0,0,0,0,0,0,0,0,0,0,0.8113,0.8113,0,0.8154,0.8154,0.8154,0.819,0.819,0.8191,0.8191,0.8234,0.8235,0.8236,0,0,0,0,0,0,0,0,0,0,0,0,0,0.8067,0.8067,0.8113,0.8113,0.8114,0.8153,0.8154,0.8155,0.819,0.819,0.8191,0.8191,0.8234,0.8235,0.8236,0,0,0,0,0,0,0,0,0,0,0,0,0,0.8095,0.8068,0.8112,0.8136,0.8138,0.8153,0.8154,0.8155,0.819,0.819,0.8191,0.8192,0.8234,0.8235,0.8236,0.8231,0,0,0.8239,0.824,0,0,0,0,0,0,0,0,0.8093,0.8097,0.8132,0.8134,0.8137,0.8167,0.8154,0.818,0.819,0.817,0.8191,0.8192,0.8211,0.8214,0.8221,0.8233,0.8235,0.8239,0.824,0.8241,0.8241,0,0,0,0,0,0,0,0.8091,0.8095,0.8129,0.8132,0.8136,0.8145,0.815,0.8159,0.8187,0.8172,0.8175,0.8179,0.8213,0.822,0.8222,0.8235,0.8239,0.824,0.8241,0.8242,0.8247,0.8246,0,0,0,0,0,0,0.8086,0.8093,0.8127,0.813,0.8116,0.8145,0.8151,0.8157,0.8187,0.8192,0.8178,0.8181,0.8217,0.8221,0.8224,0.822,0.8241,0.8242,0.8242,0.8247,0.8247,0.8246,0,0,0,0,0,0,0.8084,0.8088,0.8126,0.8112,0.8118,0.8146,0.8152,0.8157,0.8164,0.8192,0.8197,0.818,0.8218,0.8222,0.8229,0.8222,0.8242,0.8243,0.8248,0.8247,0.8246,0.8213,0,0,0,0,0,0,0.8083,0.8088,0.8085,0.8112,0.8118,0.813,0.8152,0.8158,0.8166,0.8169,0.8195,0.8199,0.8219,0.8227,0.823,0.8224,0.8244,0.8249,0.8248,0.8247,0.8215,0.8211,0.8208,0,0,0,0,0,0.8081,0.8074,0.8085,0.8089,0.8116,0.8129,0.8133,0.8155,0.8165,0.8164,0.8182,0.8199,0.8223,0.8227,0.8231,0.8225,0.8249,0.8248,0.8247,0.8216,0.8212,0.8208,0,0,0,0,0,0,0.8046,0.8078,0.8091,0.8092,0.8108,0.8135,0.8133,0.8149,0.8162,0.8165,0.8192,0.8197,0.8201,0.8214,0.8219,0.8223,0.8238,0.8238,0.8214,0.821,0.8206,0.8203,0.8245,0,0,0,0,0,0.8039,0.8046,0.8074,0.8073,0.808,0.8105,0.8112,0.8128,0.8145,0.8152,0.817,0.8187,0.8198,0.8205,0.8217,0.8217,0.8224,0.8215,0.8212,0.8209,0.8208,0.8209,0.8206,0.8242,0.8242,0.8242,0,0,0.8023,0.8042,0.8045,0.8066,0.808,0.8087,0.8111,0.8117,0.8123,0.8153,0.816,0.8175,0.8195,0.8199,0.8201,0.821,0.82,0.8207,0.8205,0.8205,0.8208,0.8204,0.8201,0.8241,0.8241,0.8241,0,0,0.7999,0.8013,0.8014,0.8028,0.8048,0.8066,0.8066,0.8091,0.8102,0.811,0.8132,0.814,0.8159,0.8173,0.8182,0.8165,0.8181,0.8168,0.815,0.8151,0.8148,0.8146,0.8139,0.8136,0.8167,0.8167,0.8167,0,0.7977,0.7988,0.8012,0.8018,0.8027,0.8054,0.8056,0.8068,0.8092,0.8097,0.8107,0.8132,0.8147,0.8155,0.815,0.8157,0.8159,0.8164,0.8146,0.8144,0.8142,0.8136,0.8134,0.8165,0.8165,0.8166,0.8166,0,0.796,0.7968,0.7966,0.7988,0.7997,0.8001,0.8026,0.8032,0.8048,0.8064,0.8073,0.8093,0.811,0.8113,0.8128,0.8123,0.8127,0.8141,0.8157,0.8137,0.8132,0.813,0.8163,0.8163,0.8164,0.8164,0,0,0.7913,0.7949,0.7948,0.7959,0.7984,0.7991,0.7997,0.8013,0.8018,0.8034,0.8039,0.8055,0.8068,0.8079,0.8096,0.8098,0.8082,0.8112,0.8113,0.8105,0.8078,0.8066,0.8063,0.8094,0.8094,0.8093,0.8076,0,0.7892,0.7902,0.7924,0.7927,0.7935,0.7962,0.7967,0.7984,0.8,0.8009,0.8028,0.8038,0.8055,0.8062,0.8065,0.8083,0.8077,0.8085,0.8099,0.8099,0.8092,0.8061,0.8048,0.8031,0.8074,0.8074,0.8074,0,0.7868,0.7882,0.7886,0.7912,0.7916,0.792,0.7937,0.7946,0.7966,0.7977,0.799,0.8009,0.8017,0.8033,0.8044,0.8049,0.8056,0.8067,0.8067,0.8068,0.8084,0.806,0.8026,0.8023,0.8071,0.8071,0.8071,0,0.7832,0.7853,0.7858,0.7866,0.7897,0.7898,0.7911,0.7932,0.7941,0.7956,0.7962,0.7979,0.7987,0.8,0.8024,0.8033,0.8032,0.805,0.8042,0.8042,0.804,0.8039,0.8005,0.8046,0.8046,0.8046,0.8046,0,0.7806,0.7807,0.7842,0.7845,0.7847,0.7874,0.7876,0.7892,0.791,0.7917,0.7942,0.7949,0.798,0.799,0.8009,0.8015,0.8019,0.8029,0.8034,0.8026,0.8025,0.803,0.8032,0.8046,0.8046,0.8046,0.8046,0,0.7765,0.7789,0.7796,0.7825,0.7832,0.7833,0.7858,0.7862,0.788,0.7889,0.7893,0.7921,0.7935,0.796,0.798,0.7993,0.7995,0.8005,0.7988,0.7991,0.7982,0.7982,0.7949,0.7946,0.799,0.7989,0.7989,0,0.7746,0.7747,0.7777,0.7783,0.7795,0.7805,0.7814,0.7841,0.785,0.7873,0.7875,0.789,0.7904,0.7924,0.7947,0.7963,0.7972,0.796,0.7975,0.7967,0.7971,0.797,0.7971,0.7956,0.7955,0.7955,0.7954,0,0.7709,0.7721,0.7733,0.7749,0.7759,0.7773,0.7789,0.7793,0.7824,0.7832,0.7846,0.7857,0.7878,0.7893,0.7913,0.7927,0.7946,0.795,0.7949,0.794,0.793,0.7935,0.7978,0.795,0.795,0.7951,0.7951,0.7951,0.7678,0.7681,0.7702,0.7715,0.773,0.7744,0.7749,0.7768,0.778,0.7799,0.7815,0.7828,0.7849,0.7877,0.7891,0.7902,0.791,0.7909,0.7909,0.7908,0.7904,0.793,0.7905,0.7906,0.7906,0.7906,0.7906,0,0.7642,0.7657,0.7669,0.769,0.77,0.7717,0.7736,0.7743,0.7754,0.7772,0.7785,0.7801,0.7816,0.7841,0.7858,0.7862,0.7871,0.7866,0.7865,0.7868,0.7896,0.7894,0.7858,0.7858,0.7858,0.7858,0.7858,0.7858,0.7624,0.763,0.7645,0.7658,0.7674,0.7686,0.7695,0.7709,0.7723,0.774,0.7753,0.7769,0.779,0.7809,0.7824,0.7831,0.7836,0.7828,0.7837,0.7862,0.7866,0.787,0.7869,0.7829,0.7829,0.7809,0.7809,0.7809]},{"header":{"parameterUnit":"m.s-1","parameterCategory":1,"la1":30.2991,"la2":30.254,"lo1":-89.0895,"lo2":-89.0444,"dy":0.0017,"dx":0.0017,"nx":28,"ny":28,"refTime":"2024-03-05T09:00:00:Z","depth":0,"parameterNumber":3,"parameterNumberName":"V-component_of_WINDS"},"data":[0,0,0,0,0,0,0,0,0,0,0,0,0,0,0,0,0,0,0,0,0,0,0,0,0,0,0,0,0,0,0,0,0,0,0,0,0,0,0,0,0,0,0,0,0,0,0,0,0,0,0,0,0,0,0,0,0,0,-1.3588,-1.3588,0,-1.3618,-1.3619,-1.3619,-1.3637,-1.3637,-1.3637,-1.3637,-1.3668,-1.3669,-1.3669,0,0,0,0,0,0,0,0,0,0,0,0,0,-1.3547,-1.3548,-1.3588,-1.3588,-1.3589,-1.3618,-1.3619,-1.3619,-1.3637,-1.3637,-1.3637,-1.3637,-1.3668,-1.3669,-1.3669,0,0,0,0,0,0,0,0,0,0,0,0,0,-1.357,-1.3548,-1.3588,-1.3601,-1.3603,-1.3618,-1.3619,-1.3619,-1.3637,-1.3637,-1.3637,-1.3637,-1.3667,-1.3668,-1.367,-1.3674,0,0,-1.3673,-1.3673,0,0,0,0,0,0,0,0,-1.3568,-1.3571,-1.3599,-1.36,-1.3602,-1.3624,-1.3615,-1.3638,-1.3637,-1.3624,-1.3637,-1.3637,-1.3653,-1.3655,-1.3661,-1.3675,-1.3677,-1.3673,-1.3674,-1.3674,-1.3675,0,0,0,0,0,0,0,-1.3567,-1.357,-1.36,-1.3599,-1.3601,-1.3606,-1.3609,-1.362,-1.3637,-1.3625,-1.3626,-1.363,-1.3654,-1.366,-1.3662,-1.3677,-1.3673,-1.3674,-1.3675,-1.3675,-1.37,-1.37,0,0,0,0,0,0,-1.3563,-1.3569,-1.3599,-1.3601,-1.3585,-1.3607,-1.3611,-1.3617,-1.3637,-1.3641,-1.363,-1.363,-1.3658,-1.366,-1.3663,-1.3671,-1.3674,-1.3675,-1.3676,-1.37,-1.37,-1.37,0,0,0,0,0,0,-1.3562,-1.3566,-1.3598,-1.3585,-1.359,-1.3607,-1.3614,-1.3617,-1.3623,-1.3641,-1.3644,-1.3632,-1.3658,-1.3661,-1.3672,-1.3672,-1.3676,-1.3677,-1.37,-1.37,-1.37,-1.3686,0,0,0,0,0,0,-1.3561,-1.3565,-1.3567,-1.3585,-1.359,-1.3606,-1.3614,-1.3618,-1.3625,-1.3626,-1.3644,-1.3647,-1.3658,-1.367,-1.3673,-1.3674,-1.3678,-1.37,-1.37,-1.37,-1.3687,-1.3686,-1.3685,0,0,0,0,0,-1.3559,-1.3561,-1.3566,-1.357,-1.3592,-1.3606,-1.3609,-1.3621,-1.3625,-1.3627,-1.3639,-1.3647,-1.3672,-1.3671,-1.3674,-1.3676,-1.37,-1.37,-1.37,-1.3687,-1.3686,-1.3685,0,0,0,0,0,0,-1.3542,-1.3564,-1.357,-1.3578,-1.359,-1.3609,-1.3611,-1.3619,-1.3631,-1.3631,-1.3647,-1.3651,-1.366,-1.3669,-1.3668,-1.3682,-1.3687,-1.3687,-1.3676,-1.3675,-1.3674,-1.3672,-1.3679,0,0,0,0,0,-1.3539,-1.3547,-1.3566,-1.3571,-1.3577,-1.3593,-1.3599,-1.3609,-1.3622,-1.3627,-1.3639,-1.3652,-1.3663,-1.3669,-1.368,-1.3688,-1.3693,-1.3691,-1.369,-1.369,-1.369,-1.3697,-1.3697,-1.3699,-1.3699,-1.3699,0,0,-1.3532,-1.3546,-1.355,-1.3568,-1.3578,-1.3588,-1.3597,-1.3606,-1.3614,-1.3628,-1.3639,-1.3649,-1.3664,-1.3674,-1.3679,-1.3681,-1.3691,-1.369,-1.3689,-1.369,-1.3697,-1.3697,-1.3696,-1.3699,-1.3699,-1.3699,0,0,-1.3526,-1.3537,-1.3543,-1.3553,-1.3569,-1.358,-1.3582,-1.36,-1.3607,-1.3619,-1.363,-1.364,-1.3658,-1.3669,-1.3676,-1.3677,-1.3685,-1.368,-1.3675,-1.3682,-1.3682,-1.3682,-1.3683,-1.3683,-1.368,-1.368,-1.368,0,-1.3517,-1.3531,-1.3545,-1.3554,-1.3562,-1.3576,-1.3584,-1.3593,-1.3612,-1.3617,-1.362,-1.3645,-1.3656,-1.3669,-1.367,-1.3675,-1.3678,-1.3678,-1.3681,-1.3681,-1.3681,-1.3682,-1.3683,-1.368,-1.368,-1.368,-1.368,0,-1.3519,-1.3529,-1.3532,-1.3551,-1.3559,-1.3567,-1.3583,-1.359,-1.3599,-1.361,-1.3623,-1.3637,-1.3652,-1.3656,-1.3664,-1.3671,-1.3672,-1.3678,-1.3682,-1.368,-1.3682,-1.3682,-1.3679,-1.3679,-1.3679,-1.3679,0,0,-1.3501,-1.3529,-1.353,-1.354,-1.3559,-1.3567,-1.3576,-1.3592,-1.3598,-1.3611,-1.362,-1.3636,-1.3642,-1.3651,-1.366,-1.3666,-1.3668,-1.3671,-1.3672,-1.3671,-1.3678,-1.3675,-1.3675,-1.3673,-1.3673,-1.3673,-1.3677,0,-1.3499,-1.3516,-1.353,-1.3542,-1.3553,-1.3567,-1.3576,-1.3589,-1.36,-1.3611,-1.3623,-1.3635,-1.3641,-1.3647,-1.3653,-1.3666,-1.3669,-1.3666,-1.3683,-1.3683,-1.3679,-1.3676,-1.3671,-1.3674,-1.3678,-1.3678,-1.3678,0,-1.3498,-1.3511,-1.3525,-1.3545,-1.355,-1.3557,-1.3573,-1.3583,-1.3599,-1.3607,-1.3618,-1.3629,-1.364,-1.3644,-1.3661,-1.3658,-1.3666,-1.3674,-1.3675,-1.3677,-1.3681,-1.3679,-1.3675,-1.3676,-1.3679,-1.3679,-1.3679,0,-1.3486,-1.3507,-1.3518,-1.3525,-1.3549,-1.3554,-1.3564,-1.358,-1.3589,-1.3603,-1.361,-1.3625,-1.3633,-1.3645,-1.366,-1.3661,-1.3676,-1.3681,-1.3684,-1.3684,-1.3686,-1.3686,-1.3685,-1.369,-1.369,-1.369,-1.369,0,-1.3482,-1.349,-1.3513,-1.352,-1.353,-1.3546,-1.3556,-1.3567,-1.3582,-1.3592,-1.3606,-1.3615,-1.3634,-1.3646,-1.3658,-1.3671,-1.3674,-1.3682,-1.3685,-1.3681,-1.368,-1.3687,-1.3687,-1.369,-1.369,-1.369,-1.369,0,-1.3469,-1.3485,-1.3499,-1.3521,-1.3526,-1.3533,-1.3552,-1.356,-1.3572,-1.3585,-1.3589,-1.3608,-1.3624,-1.364,-1.366,-1.3668,-1.3681,-1.3685,-1.3676,-1.3678,-1.368,-1.368,-1.3684,-1.3686,-1.3689,-1.3689,-1.3689,0,-1.3466,-1.3473,-1.3496,-1.3504,-1.3514,-1.3526,-1.3536,-1.3553,-1.3562,-1.3582,-1.3588,-1.3604,-1.3618,-1.3642,-1.3658,-1.3674,-1.3679,-1.3679,-1.3682,-1.3678,-1.3681,-1.368,-1.3682,-1.3679,-1.3678,-1.3678,-1.3678,0,-1.3459,-1.3467,-1.348,-1.3497,-1.3508,-1.3521,-1.3536,-1.3541,-1.3561,-1.3572,-1.3587,-1.3598,-1.362,-1.3636,-1.3655,-1.3666,-1.3676,-1.3678,-1.3679,-1.3676,-1.367,-1.3675,-1.3675,-1.3677,-1.3677,-1.3677,-1.3678,-1.3678,-1.3452,-1.3459,-1.3477,-1.3492,-1.3505,-1.3518,-1.3527,-1.3541,-1.3555,-1.3574,-1.3583,-1.3599,-1.3617,-1.3643,-1.3654,-1.3668,-1.3671,-1.3673,-1.3674,-1.3674,-1.3674,-1.3668,-1.3671,-1.3671,-1.3671,-1.3671,-1.3671,0,-1.3447,-1.346,-1.3473,-1.3493,-1.3505,-1.3513,-1.353,-1.354,-1.3554,-1.357,-1.3584,-1.3603,-1.3619,-1.3637,-1.3655,-1.3663,-1.3668,-1.3667,-1.3667,-1.367,-1.367,-1.3667,-1.3663,-1.3663,-1.3663,-1.3663,-1.3663,-1.3663,-1.3446,-1.3459,-1.347,-1.349,-1.3503,-1.3519,-1.3528,-1.3541,-1.3554,-1.3575,-1.3589,-1.3601,-1.3618,-1.3637,-1.3654,-1.3659,-1.3665,-1.3663,-1.3669,-1.3669,-1.367,-1.367,-1.3668,-1.3664,-1.3664,-1.3669,-1.3669,-1.3669]}]]